Macomb, IL

4:39 AM CDT on June 25, 2017 (GMT -0500)
Macomb Municipal

Weather History for KMQB - March, 2012

Change the Weather History Date:

Monday, March 26, 2012

  Actual Average (KBRL) Record (KBRL)
Temperature  
Mean Temperature 54 °F -  
Max Temperature 60 °F 53 °F 84 °F (1991)
Min Temperature 48 °F 33 °F 3 °F (1955)
Degree Days  
Heating Degree Days 11    
Growing Degree Days 4 (Base 50)    
Moisture  
Dew Point 39 °F    
Average Humidity 60    
Maximum Humidity 93    
Minimum Humidity 31    
Precipitation  
Precipitation 0.00 in - - ()
Sea Level Pressure  
Sea Level Pressure 30.21 in    
Wind  
Wind Speed 11 mph (East)    
Max Wind Speed 22 mph    
Max Gust Speed 31 mph    
Visibility 10 miles    
Events      
Averages and records for this station are not official NWS values.
T = Trace of Precipitation, MM = Missing Value Source: NWS Daily Summary

Daily Weather History Graph

Daily Weather History Graph

Search for Another Location

Airport or City:

Trip Planner

Search our weather history database for the weather conditions in past years. The results will help you decide how hot, cold, wet, or windy it might be!

Date:

Astronomy

Mar. 26, 2012 Rise Set
Actual Time 6:55 AM CDT 7:21 PM CDT
Civil Twilight 6:27 AM CDT 7:48 PM CDT
Nautical Twilight 5:55 AM CDT 8:21 PM CDT
Astronomical Twilight 5:22 AM CDT 8:54 PM CDT
Moon 8:43 AM CDT (3/26) 11:33 PM CDT (3/26)
Length of Visible Light 13h 20m
Length of Day
12h 26m
Waxing Crescent, 15% of the Moon is Illuminated
Mar 26
Waxing Crescent
Mar 30
First Quarter
Apr 6
Full
Apr 13
Last Quarter
Apr 21
New

Hourly Weather History & Observations

Time (CDT) Temp. Dew Point Humidity Pressure Visibility Wind Dir Wind Speed Gust Speed Precip Events Conditions
12:15 AM 55.4 °F 50.7 °F 84% 30.09 in 10.0 mi Calm Calm - N/A   Clear
12:35 AM 55.4 °F 51.8 °F 88% 30.08 in 10.0 mi Calm Calm - N/A   Clear
12:55 AM 55.4 °F 50.2 °F 83% 30.08 in 10.0 mi Calm Calm - N/A   Clear
1:15 AM 52.5 °F 49.3 °F 89% 30.09 in 10.0 mi North 5.8 mph - N/A   Clear
1:35 AM 52.7 °F 50.0 °F 91% 30.09 in 10.0 mi NE 3.5 mph - N/A   Clear
1:55 AM 53.2 °F 50.0 °F 89% 30.09 in 10.0 mi NE 5.8 mph - N/A   Clear
2:15 AM 54.5 °F 50.9 °F 88% 30.10 in 10.0 mi NE 8.1 mph - N/A   Clear
2:35 AM 55.2 °F 51.4 °F 87% 30.11 in 10.0 mi NE 9.2 mph - N/A   Clear
2:55 AM 54.5 °F 51.8 °F 91% 30.12 in 10.0 mi NE 9.2 mph - N/A   Clear
3:15 AM 55.4 °F 51.8 °F 88% 30.13 in 7.0 mi ENE 12.7 mph - N/A   Clear
3:35 AM 54.5 °F 52.3 °F 92% 30.14 in 5.0 mi ENE 11.5 mph - N/A   Clear
3:55 AM 54.0 °F 52.0 °F 93% 30.15 in 5.0 mi ENE 11.5 mph - N/A   Clear
4:15 AM 53.6 °F 50.5 °F 89% 30.16 in 7.0 mi ENE 15.0 mph - N/A   Clear
4:35 AM 52.7 °F 49.3 °F 88% 30.17 in 7.0 mi ENE 15.0 mph - N/A   Scattered Clouds
4:55 AM 52.0 °F 47.5 °F 85% 30.19 in 4.0 mi ENE 15.0 mph 21.9 mph N/A   Haze
5:15 AM 52.0 °F 46.0 °F 80% 30.20 in 10.0 mi East 17.3 mph - N/A   Overcast
5:35 AM 51.6 °F 45.7 °F 80% 30.20 in 10.0 mi East 13.8 mph - N/A   Mostly Cloudy
5:55 AM 51.4 °F 45.9 °F 81% 30.21 in 10.0 mi East 15.0 mph - N/A   Mostly Cloudy
6:15 AM 50.4 °F 45.7 °F 84% 30.22 in 10.0 mi ENE 12.7 mph - N/A   Mostly Cloudy
6:35 AM 48.9 °F 42.6 °F 79% 30.23 in 10.0 mi ENE 15.0 mph - N/A   Scattered Clouds
6:55 AM 48.2 °F 41.4 °F 77% 30.24 in 10.0 mi ENE 13.8 mph 18.4 mph N/A   Mostly Cloudy
7:15 AM 48.4 °F 40.6 °F 75% 30.24 in 10.0 mi East 17.3 mph 21.9 mph N/A   Scattered Clouds
7:35 AM 48.4 °F 40.6 °F 75% 30.25 in 10.0 mi East 15.0 mph - N/A   Mostly Cloudy
7:55 AM 48.4 °F 39.4 °F 71% 30.26 in 10.0 mi East 16.1 mph - N/A   Mostly Cloudy
8:15 AM 48.2 °F 38.1 °F 68% 30.26 in 10.0 mi East 17.3 mph 21.9 mph N/A   Scattered Clouds
8:35 AM 48.2 °F 35.6 °F 62% 30.27 in 10.0 mi ENE 16.1 mph - N/A   Scattered Clouds
8:55 AM 48.4 °F 36.3 °F 63% 30.27 in 10.0 mi ENE 15.0 mph - N/A   Mostly Cloudy
9:15 AM 49.1 °F 36.9 °F 63% 30.27 in 10.0 mi East 16.1 mph - N/A   Overcast
9:35 AM 50.0 °F 34.9 °F 56% 30.28 in 10.0 mi East 16.1 mph - N/A   Overcast
9:55 AM 51.1 °F 34.3 °F 53% 30.28 in 10.0 mi East 16.1 mph 23.0 mph N/A   Overcast
10:15 AM 51.6 °F 33.8 °F 51% 30.30 in 10.0 mi East 17.3 mph - N/A   Overcast
10:35 AM 51.8 °F 34.5 °F 52% 30.29 in 10.0 mi East 17.3 mph - N/A   Overcast
10:55 AM 53.1 °F 33.4 °F 47% 30.29 in 10.0 mi East 19.6 mph - N/A   Overcast
11:15 AM 53.8 °F 33.3 °F 46% 30.30 in 10.0 mi East 18.4 mph - N/A   Overcast
11:35 AM 54.7 °F 32.4 °F 43% 30.29 in 10.0 mi East 19.6 mph 23.0 mph N/A   Overcast
11:55 AM 55.0 °F 32.0 °F 42% 30.29 in 10.0 mi East 18.4 mph 23.0 mph N/A   Overcast
12:15 PM 55.2 °F 31.8 °F 41% 30.29 in 10.0 mi East 16.1 mph 21.9 mph N/A   Overcast
12:35 PM 55.8 °F 31.1 °F 39% 30.28 in 10.0 mi East 18.4 mph 23.0 mph N/A   Overcast
12:55 PM 55.6 °F 31.3 °F 40% 30.28 in 10.0 mi East 21.9 mph - N/A   Overcast
1:15 PM 57.4 °F 30.7 °F 36% 30.26 in 10.0 mi ESE 20.7 mph 26.5 mph N/A   Scattered Clouds
1:35 PM 57.4 °F 30.2 °F 36% 30.26 in 10.0 mi East 20.7 mph 31.1 mph N/A   Clear
1:55 PM 58.6 °F 30.9 °F 35% 30.25 in 10.0 mi ESE 17.3 mph 23.0 mph N/A   Clear
2:15 PM 59.2 °F 28.9 °F 32% 30.24 in 10.0 mi ESE 18.4 mph 24.2 mph N/A   Clear
2:35 PM 58.5 °F 30.6 °F 35% 30.23 in 10.0 mi East 19.6 mph - N/A   Clear
2:55 PM 58.6 °F 31.8 °F 36% 30.23 in 10.0 mi East 20.7 mph 26.5 mph N/A   Clear
3:15 PM 59.4 °F 32.0 °F 36% 30.22 in 10.0 mi East 15.0 mph 21.9 mph N/A   Scattered Clouds
3:35 PM 60.1 °F 31.3 °F 34% 30.22 in 10.0 mi East 19.6 mph 23.0 mph N/A   Scattered Clouds
3:55 PM 58.8 °F 30.0 °F 34% 30.22 in 10.0 mi East 16.1 mph 25.3 mph N/A   Scattered Clouds
4:15 PM 60.3 °F 30.9 °F 33% 30.22 in 10.0 mi East 17.3 mph - N/A   Mostly Cloudy
4:35 PM 59.9 °F 28.8 °F 31% 30.21 in 10.0 mi ESE 17.3 mph - N/A   Mostly Cloudy
4:55 PM 58.1 °F 27.9 °F 32% 30.20 in 10.0 mi ESE 18.4 mph 23.0 mph N/A   Overcast
5:15 PM 58.3 °F 30.0 °F 34% 30.19 in 10.0 mi East 17.3 mph 24.2 mph N/A   Mostly Cloudy
5:35 PM 57.2 °F 31.3 °F 37% 30.19 in 10.0 mi ESE 19.6 mph - N/A   Clear
5:55 PM 56.5 °F 31.3 °F 38% 30.19 in 10.0 mi ESE 17.3 mph - N/A   Scattered Clouds
6:15 PM 55.4 °F 32.7 °F 42% 30.18 in 10.0 mi East 19.6 mph - N/A   Scattered Clouds
6:35 PM 54.0 °F 32.7 °F 45% 30.18 in 10.0 mi East 16.1 mph 21.9 mph N/A   Clear
6:55 PM 53.2 °F 32.7 °F 46% 30.18 in 10.0 mi East 16.1 mph 20.7 mph N/A   Clear
7:15 PM 53.6 °F 32.0 °F 44% 30.18 in 10.0 mi East 13.8 mph - N/A   Clear
7:35 PM 52.0 °F 31.8 °F 46% 30.18 in 10.0 mi ESE 15.0 mph - N/A   Clear
7:55 PM 51.4 °F 31.8 °F 47% 30.18 in 10.0 mi East 13.8 mph - N/A   Clear
8:15 PM 51.1 °F 32.0 °F 48% 30.18 in 10.0 mi East 16.1 mph - N/A   Clear
8:35 PM 51.1 °F 31.6 °F 47% 30.18 in 10.0 mi ESE 13.8 mph - N/A   Clear
8:55 PM 51.1 °F 31.5 °F 47% 30.19 in 10.0 mi ESE 12.7 mph - N/A   Scattered Clouds
9:15 PM 51.1 °F 31.6 °F 47% 30.19 in 10.0 mi ESE 12.7 mph - N/A   Mostly Cloudy
9:35 PM 51.8 °F 32.0 °F 47% 30.19 in 10.0 mi ESE 16.1 mph - N/A   Mostly Cloudy
9:55 PM 51.8 °F 33.3 °F 49% 30.18 in 10.0 mi ESE 17.3 mph - N/A   Mostly Cloudy
10:15 PM 52.0 °F 34.0 °F 50% 30.17 in 10.0 mi ESE 17.3 mph 25.3 mph N/A   Scattered Clouds
10:35 PM 51.8 °F 34.3 °F 51% 30.17 in 10.0 mi ESE 16.1 mph - N/A   Clear
10:55 PM 51.8 °F 34.9 °F 53% 30.16 in 10.0 mi ESE 18.4 mph 24.2 mph N/A   Clear
11:15 PM 51.8 °F 35.1 °F 53% 30.15 in 10.0 mi ESE 17.3 mph 21.9 mph N/A   Clear
11:35 PM 51.3 °F 35.2 °F 54% 30.15 in 10.0 mi ESE 19.6 mph 26.5 mph N/A   Clear
11:55 PM 51.1 °F 35.6 °F 55% 30.14 in 10.0 mi ESE 19.6 mph 24.2 mph N/A   Clear